Location: Peralejo
(40.5415°N, 4.1259°W)
Time: 01:41:54
(UTC+00:00)

SPOT 1/Viking Rocket - Pass Details

Date: 18 April 2024
Orbit: 774 x 792 km, 98.3° (Epoch: 28 May)

Event Time Altitude Azimuth Distance (km) Brightness Sun altitude
Rises 19:18:11 0° 150° (SSE) 3,277 6.3 -4.3°
Reaches altitude 10° 19:20:34 10° 144° (SE) 2,353 5.5 -4.7°
Maximum altitude 19:25:32 48° 71° (ENE) 1,028 3.9 -5.6°
Drops below altitude 10° 19:30:33 10° 358° (N) 2,366 6.4 -6.5°
Sets 19:32:56 0° 353° (N) 3,298 7.2 -6.9°
